My Profile
  1. Member Settings
  2. My Devices
  3. Sign Out
        More Settings
      Elev 2965 ft, 9.981 °N 84.199 °W

      San Rafael, CR

      Summary

      Temperature (°F)MaxAverageMin
      Max Temperature8882.3473
      Avg Temperature77.2574.5670.79
      Min Temperature7369.2866
      Precipitation (in)MaxAverageMinSum
      Precipitation0000
      Dew Point (°F)MaxAverageMin
      Dew Point67.7963.0958.8
      Wind (mph)MaxAverageMin
      Wind3018.3810
      Gust Wind4427.5516
      Sea Level Pressure (in)MaxAverageMin
      Sea Level Pressure26.9826.8426.76

      Daily Observations

      DateTemp High/LowDew Pt High/LowHumidityWindMax WindWind GustPressurePrecip.Condition
      12/1/2023 84 °F / 70 °F 63 °F / 55 °F 58 % 17 mph - 26.83 in 0 in
      12/2/2023 84 °F / 68 °F 63 °F / 57 °F 61 % 15 mph - 26.82 in 0 in
      12/3/2023 84 °F / 66 °F 82 °F / 59 °F 67 % 16 mph - 26.81 in 0 in
      12/4/2023 84 °F / 68 °F 63 °F / 57 °F 60 % 17 mph - 26.81 in 0 in
      12/5/2023 84 °F / 72 °F 63 °F / 59 °F 61 % 22 mph - 26.82 in 0 in
      12/6/2023 81 °F / 72 °F 64 °F / 57 °F 66 % 21 mph - 26.84 in 0 in
      12/7/2023 82 °F / 70 °F 63 °F / 55 °F 58 % 23 mph - 26.85 in 0 in
      12/8/2023 84 °F / 68 °F 64 °F / 55 °F 61 % 23 mph - 26.8 in 0 in
      12/9/2023 86 °F / 72 °F 66 °F / 61 °F 63 % 21 mph - 26.79 in 0 in
      12/10/2023 86 °F / 70 °F 73 °F / 64 °F 73 % 17 mph - 26.77 in 0 in
      12/11/2023 88 °F / 70 °F 70 °F / 63 °F 68 % 20 mph - 26.76 in 0 in
      12/12/2023 86 °F / 72 °F 66 °F / 64 °F 67 % 18 mph - 26.77 in 0 in
      12/13/2023 82 °F / 72 °F 64 °F / 61 °F 65 % 30 mph - 26.76 in 0 in
      12/14/2023 84 °F / 72 °F 66 °F / 63 °F 66 % 21 mph - 26.76 in 0 in
      12/15/2023 82 °F / 70 °F 70 °F / 63 °F 73 % 15 mph - 26.79 in 0 in
      12/16/2023 84 °F / 70 °F 72 °F / 64 °F 79 % 13 mph - 26.83 in 0 in
      12/17/2023 84 °F / 70 °F 64 °F / 59 °F 64 % 15 mph - 26.83 in 0 in
      12/18/2023 77 °F / 68 °F 64 °F / 55 °F 68 % 21 mph - 26.84 in 0 in
      12/19/2023 77 °F / 68 °F 63 °F / 59 °F 69 % 24 mph - 26.83 in 0 in
      12/20/2023 77 °F / 66 °F 61 °F / 57 °F 68 % 22 mph - 26.84 in 0 in
      12/21/2023 82 °F / 66 °F 63 °F / 57 °F 65 % 21 mph - 26.82 in 0 in
      12/22/2023 82 °F / 70 °F 70 °F / 63 °F 71 % 16 mph - 26.82 in 0 in
      12/23/2023 84 °F / 70 °F 66 °F / 63 °F 66 % 22 mph - 26.85 in 0 in
      12/24/2023 84 °F / 68 °F 68 °F / 59 °F 68 % 16 mph - 26.85 in 0 in
      12/25/2023 82 °F / 66 °F 70 °F / 57 °F 74 % 14 mph - 26.89 in 0 in
      12/26/2023 86 °F / 68 °F 72 °F / 61 °F 78 % 17 mph - 26.87 in 0 in
      12/27/2023 84 °F / 68 °F 72 °F / 63 °F 79 % 13 mph - 26.9 in 0 in
      12/28/2023 82 °F / 68 °F 72 °F / 64 °F 86 % 13 mph - 26.9 in 0 in
      12/29/2023 75 °F / 68 °F 68 °F / 63 °F 87 % 16 mph - 26.92 in 0 in
      12/30/2023 79 °F / 66 °F 70 °F / 61 °F 75 % 15 mph - 26.93 in 0 in
      12/31/2023 82 °F / 70 °F 64 °F / 57 °F 63 % 21 mph - 26.94 in 0 in
      essentialaccessibility.com
      We recognize our responsibility to use data and technology for good. We may use or share your data with our data vendors. Take control of your data.
      Glossary